[[{"header":{"parameterUnit":"m.s-1","parameterCategory":1,"la1":30.2991,"la2":30.254,"lo1":-89.0895,"lo2":-89.0444,"dy":0.0017,"dx":0.0017,"nx":28,"ny":28,"refTime":"2024-07-29T03:00:00:Z","depth":0,"parameterNumber":2,"parameterNumberName":"U-component_of_WINDS"},"data":[0,0,0,0,0,0,0,0,0,0,0,0,0,0,0,0,0,0,0,0,0,0,0,0,0,0,0,0,0,0,0,0,0,0,0,0,0,0,0,0,0,0,0,0,0,0,0,0,0,0,0,0,0,0,0,0,0,0,3.4899,3.49,0,3.5024,3.5026,3.5027,3.4977,3.4974,3.4971,3.4969,3.5099,3.5105,3.5111,0,0,0,0,0,0,0,0,0,0,0,0,0,3.4617,3.4623,3.4899,3.4901,3.4902,3.5024,3.5026,3.5028,3.4978,3.4974,3.4971,3.4967,3.5097,3.5104,3.5112,0,0,0,0,0,0,0,0,0,0,0,0,0,3.4741,3.4624,3.4899,3.4892,3.4892,3.5024,3.5026,3.5028,3.4978,3.4974,3.497,3.4965,3.5095,3.5104,3.5113,3.5259,0,0,3.5141,3.5145,0,0,0,0,0,0,0,0,3.4734,3.4751,3.4891,3.4893,3.4893,3.4981,3.4974,3.5106,3.498,3.4946,3.4968,3.4963,3.5063,3.5075,3.5108,3.5265,3.5271,3.5142,3.5148,3.5152,3.5155,0,0,0,0,0,0,0,3.4725,3.4746,3.4949,3.4893,3.4895,3.4883,3.4895,3.4999,3.5028,3.4949,3.4945,3.4961,3.5063,3.5099,3.5111,3.5273,3.5142,3.515,3.5156,3.516,3.5553,3.5558,0,0,0,0,0,0,3.4716,3.4739,3.4945,3.4952,3.4801,3.4891,3.4906,3.4957,3.5027,3.5033,3.4964,3.4958,3.5086,3.51,3.5115,3.5289,3.5152,3.5161,3.5166,3.5548,3.5554,3.556,0,0,0,0,0,0,3.471,3.4735,3.494,3.4845,3.487,3.4901,3.4959,3.4962,3.4998,3.5039,3.5044,3.4996,3.5083,3.5102,3.5223,3.5293,3.5165,3.5173,3.5543,3.555,3.5557,3.5639,0,0,0,0,0,0,3.4703,3.4733,3.4789,3.4846,3.4875,3.5045,3.4964,3.4968,3.5014,3.5007,3.507,3.5076,3.5081,3.5209,3.5232,3.5304,3.5181,3.5537,3.5546,3.5555,3.563,3.5648,3.5664,0,0,0,0,0,3.4693,3.4808,3.4792,3.4817,3.4945,3.5049,3.5066,3.5069,3.502,3.5076,3.5102,3.5074,3.5282,3.5222,3.5248,3.5323,3.5532,3.5543,3.5554,3.5623,3.5645,3.5664,0,0,0,0,0,0,3.476,3.4816,3.4799,3.4936,3.4988,3.5041,3.5112,3.5092,3.516,3.515,3.5151,3.5166,3.529,3.5319,3.5251,3.5467,3.54,3.5416,3.5443,3.5465,3.5481,3.5471,3.5188,0,0,0,0,0,3.479,3.487,3.4915,3.5032,3.5058,3.5081,3.5126,3.5124,3.5178,3.52,3.5234,3.5289,3.5366,3.5417,3.5491,3.5635,3.5647,3.5699,3.5715,3.5729,3.5743,3.5819,3.5842,3.5596,3.5595,3.5595,0,0,3.4855,3.4895,3.4945,3.5046,3.5086,3.5168,3.51,3.519,3.525,3.5214,3.5329,3.5357,3.5417,3.5549,3.5609,3.5577,3.5814,3.5743,3.5753,3.576,3.5833,3.5856,3.5877,3.5603,3.5602,3.56,0,0,3.5014,3.5053,3.5153,3.5194,3.5255,3.5269,3.5293,3.5349,3.5365,3.5481,3.5454,3.5527,3.5661,3.5704,3.5744,3.5917,3.5894,3.5942,3.6029,3.6103,3.6122,3.614,3.62,3.6222,3.5956,3.5956,3.5956,0,3.5086,3.5208,3.5208,3.53,3.5344,3.5313,3.5415,3.5455,3.5538,3.5569,3.5531,3.5697,3.5736,3.5877,3.5919,3.5953,3.598,3.5934,3.612,3.6137,3.6153,3.621,3.6233,3.5961,3.596,3.596,3.5959,0,3.5293,3.5378,3.5452,3.5531,3.5584,3.568,3.5695,3.5748,3.5741,3.5759,3.5876,3.5921,3.6002,3.6036,3.6031,3.6176,3.6154,3.6118,3.6051,3.6182,3.6235,3.6258,3.5969,3.5967,3.5965,3.5964,0,0,3.5498,3.5574,3.5601,3.5636,3.57,3.5766,3.5861,3.5939,3.5984,3.6042,3.6121,3.6234,3.62,3.6245,3.6244,3.631,3.6442,3.6266,3.6267,3.6296,3.6603,3.6628,3.6654,3.6427,3.6431,3.6434,3.6597,0,3.5661,3.5826,3.5827,3.5979,3.6057,3.6028,3.611,3.6159,3.6178,3.6246,3.6267,3.6346,3.6298,3.6324,3.6388,3.6412,3.6504,3.6401,3.6499,3.6503,3.6483,3.6682,3.671,3.6862,3.6619,3.6622,3.6625,0,3.5873,3.5935,3.6094,3.6145,3.6178,3.6252,3.6323,3.6389,3.6443,3.6452,3.6501,3.649,3.6586,3.6516,3.6647,3.6577,3.6617,3.6636,3.6642,3.665,3.6571,3.6695,3.691,3.6932,3.6658,3.6656,3.6653,0,3.6004,3.6129,3.6239,3.627,3.6333,3.6385,3.6414,3.6463,3.6509,3.6572,3.6601,3.6675,3.6715,3.6771,3.678,3.6728,3.6911,3.6842,3.692,3.692,3.696,3.6957,3.7183,3.6988,3.6988,3.6987,3.6987,0,3.6185,3.6283,3.6298,3.6367,3.6475,3.6476,3.6584,3.6608,3.6652,3.6724,3.6705,3.6772,3.678,3.685,3.6857,3.6964,3.6983,3.6992,3.6993,3.6993,3.6992,3.7019,3.7008,3.6993,3.6992,3.6991,3.699,0,3.635,3.6364,3.6483,3.6532,3.6547,3.6624,3.6666,3.6731,3.6747,3.6838,3.686,3.6886,3.6967,3.6981,3.7077,3.7082,3.7209,3.72,3.719,3.7189,3.7265,3.7257,3.7516,3.7549,3.7334,3.7336,3.7338,0,3.6463,3.6538,3.6594,3.664,3.6671,3.6747,3.6793,3.6797,3.6846,3.6912,3.6969,3.7047,3.7111,3.7242,3.7269,3.7342,3.7333,3.7419,3.7344,3.7342,3.7333,3.7327,3.7334,3.7433,3.7435,3.7437,3.7439,0,3.6663,3.6666,3.6733,3.6803,3.6859,3.6915,3.6967,3.7006,3.7017,3.7073,3.7155,3.7204,3.7301,3.7379,3.7452,3.7481,3.7462,3.7462,3.7484,3.7484,3.7475,3.7479,3.7228,3.7456,3.7454,3.7453,3.7452,3.7451,3.6804,3.6868,3.6917,3.6993,3.7032,3.7081,3.7144,3.7167,3.7235,3.7314,3.7312,3.7402,3.7452,3.7547,3.7581,3.7651,3.7624,3.7655,3.7663,3.7671,3.7677,3.7465,3.7665,3.7664,3.7664,3.7663,3.7663,0,3.7001,3.7031,3.71,3.7173,3.7233,3.7208,3.7265,3.7316,3.7394,3.7443,3.7505,3.7598,3.7673,3.7706,3.778,3.7829,3.7822,3.7849,3.7844,3.7851,3.7698,3.7671,3.7853,3.7853,3.7853,3.7853,3.7853,3.7853,3.7111,3.7217,3.7225,3.735,3.738,3.7466,3.75,3.7545,3.7583,3.7688,3.775,3.777,3.7812,3.7889,3.7956,3.7964,3.7991,3.8021,3.8025,3.7881,3.7862,3.7844,3.7818,3.8028,3.8028,3.8171,3.8173,3.8174]},{"header":{"parameterUnit":"m.s-1","parameterCategory":1,"la1":30.2991,"la2":30.254,"lo1":-89.0895,"lo2":-89.0444,"dy":0.0017,"dx":0.0017,"nx":28,"ny":28,"refTime":"2024-07-29T03:00:00:Z","depth":0,"parameterNumber":3,"parameterNumberName":"V-component_of_WINDS"},"data":[0,0,0,0,0,0,0,0,0,0,0,0,0,0,0,0,0,0,0,0,0,0,0,0,0,0,0,0,0,0,0,0,0,0,0,0,0,0,0,0,0,0,0,0,0,0,0,0,0,0,0,0,0,0,0,0,0,0,0.0527,0.0528,0,0.0581,0.0581,0.0582,0.0591,0.0591,0.059,0.059,0.0645,0.0647,0.0649,0,0,0,0,0,0,0,0,0,0,0,0,0,0.0434,0.0435,0.0527,0.0528,0.0529,0.058,0.0581,0.0582,0.0591,0.0591,0.059,0.059,0.0645,0.0647,0.0649,0,0,0,0,0,0,0,0,0,0,0,0,0,0.0479,0.0436,0.0527,0.0539,0.0541,0.058,0.0581,0.0582,0.0591,0.0591,0.059,0.0589,0.0644,0.0647,0.065,0.0681,0,0,0.0658,0.066,0,0,0,0,0,0,0,0,0.0477,0.0483,0.0537,0.0539,0.0541,0.0579,0.0569,0.0615,0.0592,0.0572,0.059,0.0589,0.0624,0.0628,0.064,0.0683,0.0686,0.0659,0.066,0.0662,0.0662,0,0,0,0,0,0,0,0.0474,0.0481,0.0548,0.0538,0.054,0.0542,0.0548,0.0577,0.0601,0.0574,0.0575,0.0581,0.0625,0.0637,0.0641,0.0686,0.0659,0.0661,0.0663,0.0664,0.0757,0.0758,0,0,0,0,0,0,0.0468,0.0478,0.0547,0.055,0.0506,0.0545,0.0551,0.0567,0.0601,0.0605,0.0581,0.0581,0.0632,0.0638,0.0643,0.0681,0.0662,0.0664,0.0666,0.0756,0.0757,0.0758,0,0,0,0,0,0,0.0466,0.0474,0.0545,0.0514,0.0523,0.0547,0.0565,0.0568,0.0581,0.0607,0.0611,0.059,0.0632,0.0639,0.0671,0.0684,0.0665,0.0668,0.0756,0.0757,0.0758,0.0758,0,0,0,0,0,0,0.0463,0.0473,0.0486,0.0514,0.0525,0.0572,0.0566,0.057,0.0586,0.0586,0.0615,0.062,0.0632,0.0667,0.0674,0.0687,0.067,0.0755,0.0756,0.0757,0.0757,0.0759,0.0761,0,0,0,0,0,0.046,0.0484,0.0486,0.0494,0.054,0.0572,0.0578,0.0592,0.0587,0.0599,0.0615,0.0619,0.0681,0.067,0.0678,0.0692,0.0754,0.0756,0.0757,0.0757,0.0759,0.0761,0,0,0,0,0,0,0.0457,0.0488,0.0491,0.0525,0.0546,0.0574,0.059,0.0594,0.0617,0.0617,0.0633,0.0639,0.067,0.0684,0.0672,0.0724,0.0717,0.072,0.0714,0.0716,0.0718,0.0714,0.0673,0,0,0,0,0,0.046,0.0483,0.0509,0.0536,0.0547,0.0566,0.0581,0.0589,0.0612,0.0621,0.0639,0.0661,0.0686,0.0702,0.0725,0.0759,0.0766,0.0773,0.0775,0.0776,0.0779,0.0798,0.0801,0.0764,0.0764,0.0764,0,0,0.0467,0.0487,0.05,0.0536,0.0553,0.0577,0.0574,0.0599,0.0617,0.0625,0.0656,0.067,0.0696,0.0728,0.0744,0.0741,0.079,0.0778,0.0779,0.0782,0.08,0.0803,0.0806,0.0765,0.0765,0.0765,0,0,0.0491,0.0509,0.0533,0.055,0.0576,0.0589,0.0595,0.0622,0.0632,0.0663,0.0669,0.069,0.0732,0.075,0.0764,0.0794,0.0798,0.0801,0.0811,0.0829,0.0832,0.0835,0.0845,0.0849,0.0804,0.0804,0.0804,0,0.0497,0.0533,0.0545,0.057,0.0586,0.0593,0.0618,0.0634,0.0666,0.0677,0.0673,0.0725,0.0743,0.0779,0.0786,0.0798,0.0805,0.0798,0.083,0.0833,0.0836,0.0846,0.085,0.0804,0.0804,0.0804,0.0804,0,0.0538,0.0563,0.0579,0.061,0.0627,0.0652,0.0668,0.0684,0.069,0.0703,0.0735,0.0756,0.0784,0.0793,0.08,0.0831,0.0828,0.0827,0.0821,0.084,0.085,0.0854,0.0804,0.0804,0.0804,0.0804,0,0,0.0564,0.06,0.0606,0.062,0.0648,0.0667,0.0692,0.0719,0.0732,0.0753,0.0775,0.0809,0.0808,0.0824,0.0833,0.0848,0.087,0.0846,0.0846,0.085,0.0905,0.0906,0.0911,0.0873,0.0874,0.0874,0.0903,0,0.0592,0.0636,0.0648,0.0686,0.0708,0.0715,0.0736,0.0756,0.0768,0.0789,0.0803,0.0827,0.0824,0.0834,0.0849,0.0864,0.0882,0.0862,0.0893,0.0894,0.0887,0.0916,0.0917,0.0944,0.0907,0.0908,0.0909,0,0.0632,0.0654,0.0693,0.0718,0.0728,0.0747,0.0772,0.0792,0.0814,0.0822,0.0839,0.0846,0.0872,0.0863,0.0899,0.0885,0.0898,0.0907,0.0909,0.0913,0.0903,0.0921,0.0953,0.0957,0.0915,0.0914,0.0914,0,0.0647,0.0686,0.0715,0.0726,0.0755,0.0769,0.0781,0.0803,0.0818,0.084,0.085,0.0874,0.0888,0.0906,0.092,0.0912,0.0954,0.0947,0.0962,0.0961,0.0971,0.097,0.1005,0.0978,0.0978,0.0978,0.0978,0,0.0678,0.0702,0.0722,0.0739,0.0766,0.0779,0.0805,0.0818,0.0837,0.0857,0.0864,0.0883,0.0899,0.092,0.0931,0.0958,0.0964,0.0971,0.0974,0.0971,0.097,0.0981,0.0979,0.0979,0.0979,0.0979,0.0978,0,0.07,0.0714,0.0746,0.077,0.0777,0.0796,0.0817,0.0834,0.0846,0.0872,0.0878,0.0897,0.0922,0.0937,0.0969,0.0975,0.1006,0.1008,0.0999,0.1,0.1014,0.1013,0.1058,0.1064,0.1032,0.1032,0.1033,0,0.0719,0.0737,0.0764,0.0778,0.0791,0.0813,0.0828,0.0841,0.0856,0.0882,0.0896,0.0921,0.0942,0.0982,0.0998,0.1022,0.1025,0.1039,0.1029,0.1025,0.1025,0.1024,0.1026,0.1041,0.1041,0.1041,0.1041,0,0.0752,0.0757,0.0779,0.0802,0.082,0.0839,0.0859,0.087,0.0886,0.0903,0.0928,0.0944,0.0975,0.1,0.1025,0.1039,0.1043,0.1044,0.1049,0.1047,0.1041,0.1044,0.1004,0.1044,0.1043,0.1043,0.1043,0.1043,0.0773,0.079,0.0811,0.0834,0.0849,0.0867,0.0884,0.0898,0.0919,0.0946,0.0952,0.0978,0.0999,0.1033,0.1047,0.1067,0.1065,0.1072,0.1074,0.1076,0.1076,0.1037,0.1072,0.1072,0.1072,0.1072,0.1072,0,0.0806,0.082,0.0841,0.0867,0.0886,0.0887,0.0908,0.0923,0.0946,0.0965,0.0985,0.1014,0.1037,0.1055,0.108,0.1093,0.1095,0.1099,0.1098,0.1101,0.1077,0.107,0.1096,0.1096,0.1096,0.1096,0.1096,0.1096,0.0826,0.0854,0.0862,0.0897,0.0911,0.0936,0.0948,0.0964,0.0979,0.1011,0.103,0.1041,0.106,0.1085,0.1107,0.1112,0.112,0.1124,0.1129,0.1106,0.1103,0.1101,0.1095,0.1125,0.1125,0.1152,0.1152,0.1152]}]]